Home > Weather > Pinneberg > Past weeks

Flag for Germany Past Weather in Pinneberg, Schleswig-Holstein, Germany — Yesterday and Last 2 Weeks

Now
66 °F

Scattered clouds.


Feels Like: 66 °F
Forecast: 64 / 84 °F
Wind: 8 mph from Northeast

Location: Hamburg-Fuhlsbuettel

Current Time: Aug 27, 2016 at 10:36:11 AM

Latest Report: Aug 27, 2016 at 9:50 AM


Visibility: N/A

Pressure: 30.18 "Hg

Humidity: 73%

Dew Point: 57 °F

Location of PinnebergLocation

Past Weather in Pinneberg — Graph

°F

Pinneberg Temperature Yesterday

Maximum temperature yesterday: 88 °F (at 1:50 PM)
Minimum temperature yesterday: 64 °F (at 11:20 PM)
Average temperature yesterday: 74 °F

High & Low Weather Summary for the Past Weeks

 TemperatureHumidityPressure
High88 °F (Aug 25, 4:20 PM)100% (Aug 12, 9:20 AM)30.30 "Hg (Aug 12, 9:20 AM)
Low43 °F (Aug 17, 5:50 AM)29% (Aug 25, 5:20 PM)29.80 "Hg (Aug 20, 12:20 AM)
Average64 °F79%30.07 "Hg
* Reported Aug 12 9:20 AM — Aug 27 9:20 AM, Pinneberg, Weather by CustomWeather, © 2016

Note: Actual official high and low records may vary slightly from our data, if they occured in-between our weather recording intervals... More about our weather records

Advertising

Pinneberg Weather History for the Previous 24 Hours

Scroll right to see more
 ConditionsComfort  
Time TempWeatherWind HumidityBarometerVisibility
9:20 AM
Sat, Aug 27
66 °FScattered clouds.6 mph78%30.18 "HgN/A
8:50 AM66 °FPassing clouds.5 mph83%30.15 "HgN/A
8:20 AM63 °FSunny.2 mph94%30.15 "Hg10 mi
7:50 AM61 °FSunny.2 mph94%30.15 "Hg10 mi
7:20 AM59 °FFog.2 mph94%30.15 "HgN/A
6:50 AM59 °FFog.2 mph94%30.15 "HgN/A
6:20 AM59 °FFog.3 mph94%30.15 "HgN/A
5:50 AM57 °FClear.5 mph100%30.15 "Hg10 mi
5:20 AM59 °FPassing clouds.5 mph100%30.15 "HgN/A
4:50 AM61 °FFog.5 mph94%30.15 "HgN/A
4:20 AM61 °FCool.3 mph94%30.15 "HgN/A
3:50 AM61 °FPassing clouds.5 mph94%30.12 "HgN/A
3:20 AM61 °FClear.5 mph94%30.12 "Hg10 mi
2:50 AM61 °FClear.5 mph100%30.12 "Hg10 mi
2:20 AM63 °FClear.3 mph94%30.12 "Hg10 mi
1:50 AM63 °FPassing clouds.3 mph94%30.12 "HgN/A
1:20 AM63 °FPassing clouds.5 mph94%30.12 "HgN/A
12:50 AM64 °FClear.5 mph88%30.12 "Hg10 mi
12:20 AM63 °FPassing clouds.5 mph94%30.09 "HgN/A
11:50 PM
Fri, Aug 26
64 °FPassing clouds.5 mph94%30.09 "HgN/A
11:20 PM64 °FClear.5 mph94%30.09 "Hg10 mi
10:50 PM66 °FClear.7 mph88%30.09 "Hg10 mi
10:20 PM66 °FClear.7 mph88%30.09 "Hg10 mi
9:50 PM68 °FClear.8 mph83%30.07 "Hg10 mi
9:20 PM68 °FSunny.9 mph83%30.07 "Hg10 mi
8:50 PM70 °FSunny.10 mph78%30.07 "Hg10 mi
8:20 PM72 °FSunny.10 mph73%30.07 "Hg10 mi
7:50 PM73 °FSunny.12 mph69%30.04 "Hg10 mi
7:20 PM75 °FSunny.10 mph69%30.04 "Hg10 mi
6:50 PM77 °FSunny.13 mph65%30.04 "Hg10 mi
6:20 PM79 °FSunny.12 mph61%30.04 "Hg10 mi
5:50 PM79 °FSunny.16 mph61%30.01 "Hg10 mi
5:20 PM81 °FSunny.14 mph58%30.01 "Hg10 mi
4:50 PM81 °FSunny.15 mph54%30.01 "Hg10 mi
4:20 PM82 °FSunny.16 mph51%30.01 "Hg10 mi
3:50 PM84 °FSunny.16 mph45%30.01 "Hg10 mi
3:20 PM84 °FPassing clouds.12 mph55%30.01 "HgN/A
2:50 PM84 °FSunny.16 mph58%29.98 "Hg10 mi
2:20 PM84 °FPassing clouds.15 mph55%29.98 "HgN/A
1:50 PM88 °FPassing clouds.10 mph43%29.98 "HgN/A
1:20 PM86 °FPassing clouds.9 mph40%29.98 "HgN/A
12:50 PM86 °FPassing clouds.9 mph43%29.95 "HgN/A
12:20 PM84 °FPassing clouds.7 mph45%29.95 "HgN/A
11:50 AM82 °FPassing clouds.5 mph48%29.95 "HgN/A
11:20 AM81 °FPassing clouds.5 mph51%29.95 "HgN/A
10:50 AM81 °FSunny.6 mph51%29.95 "Hg10 mi
10:20 AM77 °FSunny.6 mph51%29.95 "Hg10 mi
Weather by CustomWeather, © 2016

See weather overviewHow to use our weather pages